Location: ??? ???
(33.4974°N, 35.4618°E)
Time: 12:03:47
(UTC+00:00)

Cosmos 1825 - Pass Details

Date: 29 October 2020
Orbit: 502 x 508 km, 82.5° (Epoch: 26 November)

Event Time Altitude Azimuth Distance (km) Brightness Sun altitude
Rises 15:39:08 0° 14° (NNE) 2,613 5.5 -11.1°
Reaches altitude 10° 15:41:57 10° 37° (NE) 1,721 4.4 -11.7°
Enters shadow 15:42:22 12° 43° (NE) 1,622 4.3 -11.7°
